Погода в Сариасиях

Узбекистан     39°07′29″N   66°58′02″E
темп.,
°C
ветер,
м/с
пор.,
м/с
влажн.,
%
обл.,
%
осадки,
мм/ч
давл.,
гПа
погр.,
м
27 февраля, сб
сб2723:00−7в116226 0.0 102921
02:00−6всв1160100 0.0 102844
05:00−5с1161100 0.0 102849
08:00−4св1165100 0.0 102940
11:00−1ссз2157100 0.0 1029353
14:000ссз115771 0.0 1028522
17:000ссв116336 0.0 1027288
20:00−2вюв22630 0.0 102828
28 февраля, вс
вс2823:00−1вюв22560 0.0 102721
02:00−1юв12510 0.0 102521
05:00−1вюв22440 0.0 102322
08:00+1юв23430 0.0 102222
11:00+6ссв11570 0.0 1021149
14:00+8ссв11470 0.0 1018367
17:00+7в22520 0.0 1017135
20:00+4юв33480 0.0 101826
1 марта, пн
пн123:00+4юв234015 0.0 101923
02:00+4юв333778 0.0 101925
05:00+5юв343589 0.0 101828
08:00+6юв443482 0.0 101929
11:00+12ю233941 0.0 1019233
14:00+16юз35250 0.0 10171681
17:00+14зюз35350 0.0 1017221
20:00+8юв33400 0.0 101925
2 марта, вт
вт223:00+8юв343744 0.0 102031
02:00+8юв343586 0.0 102031
05:00+8юв333293 0.0 101925
08:00+9вюв3333100 0.0 102025
11:00+13з2331100 0.0 1020321
14:00+14з4527100 0.0 10191466
17:00+12вюв3446100 0.0 1019750
20:00+10ююв2257100 0.0 102046
3 марта, ср
ср323:00+9ююв2259100 0.0 102138
02:00+8ююз236193 0.0 102031
05:00+7вюв236397 0.0 102040
08:00+7ю126199 0.0 102023
11:00+10зсз335199 0.0 1019786
14:00+11сз235290 0.1 10181170
17:00+11юз025693 0.3 1017844
20:00+8всв237354 0.2 101760